"Pseudo-MPEC" for P22ppYG

Created 2026 Aug 14 23:35:27 UT using Find_Orb

Click here for an explanation of pseudo-MPECs

 
 Astrometry: 
     P22ppYG*0C2026 08 14.42993123 40 41.804+22 45 54.93   ~8ECZ 19.75wXNEOCPF52
     P22ppYG 0C2026 08 14.44132523 41 01.160+22 48 11.03   ~8ECZ 20.02wXNEOCPF52
     P22ppYG 0C2026 08 14.45284323 41 20.270+22 50 24.84   ~8EEZ 19.53GVNEOCPF52
     P22ppYG 0C2026 08 14.45347623 41 21.316+22 50 32.05   ~8EEZ 19.41GVNEOCPF52
     P22ppYG 0C2026 08 14.46430323 41 38.967+22 52 34.45   ~8EEZ 19.51GVNEOCPF52
     P22ppYG 0C2026 08 14.46493523 41 39.983+22 52 41.31   ~8EEZ 19.69GVNEOCPF52
     P22ppYG 0C2026 08 14.56289123 44 09.372+23 08 32.42   ~8EKZ 19.64GVNEOCPF51
     P22ppYG 0C2026 08 14.56354223 44 10.323+23 08 37.97   ~8EKZ 19.56GVNEOCPF51
     P22ppYG KB2026 08 14.90202 23 55 12.68 +23 43 03.2    ~8ENZ 19.7 GXNEOCPM75
     P22ppYG KB2026 08 14.91068 23 55 23.60 +23 44 09.4    ~8ENZ 19.5 GXNEOCPM75
     P22ppYG KB2026 08 14.91898 23 55 33.84 +23 45 14.0    ~8ENZ 19.5 GXNEOCPM75
     P22ppYG KB2026 08 14.93328223 56 17.41 +23 45 54.5    ~8ENZ       VNEOCP104
     P22ppYG KB2026 08 14.94883323 56 37.29 +23 48 00.8    ~8ENZ 19.6 GVNEOCP104
     P22ppYG KB2026 08 14.95318023 56 42.72 +23 48 35.4    ~8ENZ 19.3 GVNEOCP104

Station data:
(104) San Marcello Pistoiese  (N44.064178 E10.803750)  Italy.  Observers P.
   Bacci, M. Maestripieri. Measurers P. Bacci, L. Tesi, G. Fagioli. 0.60-m
   reflector + CCD.
(F51) Pan-STARRS 1, Haleakala  (N20.707234 W156.255910)  US/Hawaii.
   Observers J. Herman, T. Lowe, P. Minguez, A. Schultz, I. Smith. Measurers
   K. Chambers, T. de Boer, J. Fairlamb, H. Gao, M. Huber, C.-C. Lin, E.
   Magnier, Y. Ramanjooloo, R. Wainscoat, R. Weryk. 1.8-m Ritchey-Chrétien +
   CCD.
(F52) Pan-STARRS 2, Haleakala  (N20.707382 W156.255910)  US/Hawaii.
   Observers J. Herman, T. Lowe, P. Minguez, A. Schultz, I. Smith. Measurers
   K. Chambers, T. de Boer, J. Fairlamb, H. Gao, M. Huber, C.-C. Lin, E.
   Magnier, Y. Ramanjooloo, R. Wainscoat, R. Weryk. 1.8-m Ritchey-Chrétien +
   CCD.
(M75) Online observatory, Peschany  (N45.742938 E39.511550)  Russia.
   Observer A. V. Skachedub. 0.28-m f/2.2 reflector + CMO.

Orbital elements:  P22ppYG
   Perihelion 2026 Aug 3.370758 +/- 0.01 TT =  8:53:53.5 (JD 2461255.870758)
Epoch 2026 Aug 15.0 TT = JDT 2461267.5   Earth MOID: 0.0010   Ma: 0.0432
M   6.809702040 +/- 0.0039          (J2000 ecliptic)             AutoNEOCP
n   0.585567157 +/- 0.000202        Peri.  351.036790 +/- 0.015
a   1.414984151 +/- 0.000326        Node   318.384122 +/- 0.0036
e   0.28473334 +/- 0.000173         Incl.    2.485085 +/- 0.0020
P   1.683/614.777d         H 28.83  G  0.15   U  7.0
q 1.012090977 +/- 1.34e-5    Q 1.817877325 +/- 0.000664
From 14 observations 2026 Aug. 14 (12.6 hr); mean residual 0".35
Residuals in arcseconds: 
260814 F52  .54+  .29+    260814 F52  .24-  .24-    260814 M75  .10+  .03-    
260814 F52  .39+  .12+    260814 F51  .09+  .03-    260814 104  .27-  .41+    
260814 F52  .33-  .09-    260814 F51  .03-  .11+    260814 104  .06-  .22-    
260814 F52  .28-  .14-    260814 M75  .07-  1.0+    260814 104  .24-  .41-    
260814 F52  .19-  .06-    260814 M75  .64+  .76-    

Ephemerides (geocentric):
Date (UTC) HH   RA             Dec           delta  r     elong  mag " sig PA
---- --------  ------------   ------------  ------ ------ -----  --- --------
2026 08 15 00  23 57 12.291   +24 01 38.45  .00755 1.0176 128.6 20.1 .401  89
2026 08 15 01  23 58 13.971   +24 05 47.79  .00765 1.0177 128.5 20.2 .578  85
2026 08 15 02  23 59 14.039   +24 09 48.76  .00776 1.0177 128.3 20.2 .771  82
2026 08 15 03  00 00 12.555   +24 13 41.76  .00786 1.0177 128.1 20.3 .978  81
2026 08 15 04  00 01 09.577   +24 17 27.13  .00797 1.0178 127.9 20.3 1.20  80
2026 08 15 05  00 02 05.160   +24 21 05.23  .00807 1.0178 127.8 20.3 1.43  79
2026 08 15 06  00 02 59.354   +24 24 36.36  .00818 1.0179 127.6 20.3 1.67  79
2026 08 15 07  00 03 52.210   +24 28 00.82  .00828 1.0179 127.5 20.4 1.92  78
2026 08 15 08  00 04 43.775   +24 31 18.92  .00839 1.0179 127.3 20.4 2.17  78
2026 08 15 09  00 05 34.094   +24 34 30.91  .00849 1.0180 127.2 20.4 2.44  78
2026 08 15 10  00 06 23.210   +24 37 37.05  .00860 1.0180 127.1 20.5 2.71  78
2026 08 15 11  00 07 11.165   +24 40 37.58  .00870 1.0181 126.9 20.5 2.98  77
2026 08 15 12  00 07 57.998   +24 43 32.74  .00881 1.0181 126.8 20.5 3.26  77
2026 08 15 13  00 08 43.746   +24 46 22.74  .00892 1.0181 126.7 20.6 3.55  77
2026 08 15 14  00 09 28.446   +24 49 07.79  .00902 1.0182 126.6 20.6 3.83  77
2026 08 15 15  00 10 12.132   +24 51 48.08  .00913 1.0182 126.4 20.6 4.12  77
2026 08 15 16  00 10 54.837   +24 54 23.80  .00923 1.0183 126.3 20.6 4.42  77
2026 08 15 17  00 11 36.593   +24 56 55.13  .00934 1.0183 126.2 20.7 4.71  77
2026 08 15 18  00 12 17.430   +24 59 22.23  .00945 1.0183 126.1 20.7 5.01  77
2026 08 15 19  00 12 57.377   +25 01 45.28  .00955 1.0184 126.0 20.7 5.31  77
2026 08 15 20  00 13 36.463   +25 04 04.41  .00966 1.0184 125.9 20.8 5.61  77
2026 08 15 21  00 14 14.713   +25 06 19.77  .00976 1.0185 125.8 20.8 5.92  77
2026 08 15 22  00 14 52.154   +25 08 31.51  .00987 1.0185 125.7 20.8 6.22  77
2026 08 15 23  00 15 28.810   +25 10 39.75  .00998 1.0186 125.6 20.8 6.52  77
2026 08 16 00  00 16 04.705   +25 12 44.62  .01008 1.0186 125.5 20.9 6.82  77
2026 08 16 01  00 16 39.861   +25 14 46.25  .01019 1.0186 125.5 20.9 7.13  77
2026 08 16 02  00 17 14.301   +25 16 44.73  .01030 1.0187 125.4 20.9 7.43  77
2026 08 16 03  00 17 48.046   +25 18 40.19  .01040 1.0187 125.3 20.9 7.73  77
2026 08 16 04  00 18 21.115   +25 20 32.73  .01051 1.0188 125.2 21.0 8.03  77
2026 08 16 05  00 18 53.529   +25 22 22.45  .01062 1.0188 125.1 21.0 8.33  77
2026 08 16 06  00 19 25.305   +25 24 09.45  .01072 1.0189 125.1 21.0 8.63  77
2026 08 16 07  00 19 56.463   +25 25 53.81  .01083 1.0189 125.0 21.0 8.93  77
2026 08 16 08  00 20 27.019   +25 27 35.62  .01094 1.0189 124.9 21.1 9.23  77
2026 08 16 09  00 20 56.990   +25 29 14.97  .01104 1.0190 124.9 21.1 9.52  77
2026 08 16 10  00 21 26.392   +25 30 51.93  .01115 1.0190 124.8 21.1 9.82  77
2026 08 16 11  00 21 55.241   +25 32 26.59  .01126 1.0191 124.7 21.1 10.1  77
2026 08 16 12  00 22 23.552   +25 33 59.02  .01136 1.0191 124.7 21.1 10.4  77
2026 08 16 13  00 22 51.338   +25 35 29.29  .01147 1.0192 124.6 21.2 10.7  77
2026 08 16 14  00 23 18.615   +25 36 57.46  .01158 1.0192 124.5 21.2 11.0  77
2026 08 16 15  00 23 45.396   +25 38 23.60  .01169 1.0193 124.5 21.2 11.3  77
2026 08 16 16  00 24 11.693   +25 39 47.78  .01179 1.0193 124.4 21.2 11.6  77
2026 08 16 17  00 24 37.520   +25 41 10.05  .01190 1.0193 124.4 21.3 11.8  78
2026 08 16 18  00 25 02.888   +25 42 30.47  .01201 1.0194 124.3 21.3 12.1  78
2026 08 16 19  00 25 27.809   +25 43 49.09  .01211 1.0194 124.3 21.3 12.4  78
2026 08 16 20  00 25 52.294   +25 45 05.98  .01222 1.0195 124.2 21.3 12.7  78
2026 08 16 21  00 26 16.354   +25 46 21.17  .01233 1.0195 124.2 21.3 12.9  78
2026 08 16 22  00 26 40.001   +25 47 34.73  .01244 1.0196 124.1 21.4 13.2  78
2026 08 16 23  00 27 03.243   +25 48 46.69  .01254 1.0196 124.1 21.4 13.5  78